RH
28 24 20 18 17 15 9 4 3 3 3 3 2 2 2 2 2 3 4 5 5 5 5 4 4 3 4 3 4 4 4 4 4 4 4 5 5 4 5 5 4 4 4 4 4 4 5 5 5 5 5 6 6 6 6 6 6 6 6 6 7 8 8 8 8 8 8 9 9 9 8 8 8 8 8 8 8 7 7 7 8 9 9 10 10 10 10 10
35 31 28 26 17 12 11 7 4 4 3 3 2 2 2 2 3 3 4 5 5 5 4 4 4 3 4 3 4 4 4 4 5 5 5 5 5 5 5 5 5 5 5 4 4 5 5 5 6 6 6 6 6 6 7 7 7 7 7 7 7 8 8 9 9 9 9 9 10 9 9 9 8 8 8 9 8 7 8 8 9 10 10 11 11 11 11 11
38 35 35 34 20 12 20 15 4 6 5 3 2 1 3 3 4 4 5 6 5 4 4 3 4 4 4 4 4 5 5 5 5 5 5 5 5 5 5 5 5 5 5 5 5 5 5 5 6 6 6 7 7 8 8 8 8 7 8 8 8 8 9 9 10 10 10 10 10 10 10 10 9 9 9 9 8 8 8 9 10 11 12 13 13 13 13 12
40 36 35 39 27 18 31 26 6 5 6 3 3 2 3 5 5 5 5 5 4 4 4 4 4 4 4 4 4 5 5 5 6 6 5 5 5 5 5 5 5 5 5 5 5 5 5 5 6 6 7 8 8 9 8 8 8 8 8 9 9 9 9 10 11 11 11 11 10 10 10 10 11 10 10 9 9 9 9 10 11 12 14 14 14 14 14 14
39 35 30 35 28 17 33 36 14 6 6 3 3 2 2 4 5 6 6 5 4 4 4 5 5 5 6 6 6 7 7 6 6 6 5 6 6 5 6 6 5 5 5 5 5 5 6 6 6 7 7 9 9 9 9 9 9 9 9 9 9 9 10 11 11 12 12 12 11 11 11 11 12 12 11 10 10 10 10 11 11 13 15 16 16 15 15 15
37 36 27 27 25 16 31 42 22 6 4 3 2 3 3 4 5 6 5 4 4 4 4 5 6 7 7 8 8 9 8 6 6 6 6 6 6 6 6 6 6 5 5 6 6 6 6 6 7 7 8 9 10 10 9 10 10 10 10 10 10 11 11 11 12 12 12 13 13 12 12 12 12 13 13 12 11 11 11 11 12 14 17 18 17 17 17 16
38 38 26 22 23 20 33 44 28 8 2 3 2 3 4 5 5 5 5 4 4 5 5 6 6 6 7 7 6 7 7 6 6 6 6 6 6 6 6 6 6 6 6 6 6 6 7 7 7 8 9 10 10 11 10 10 11 11 11 12 12 12 12 13 12 13 13 13 14 13 13 12 12 13 13 13 12 12 12 12 13 15 19 19 19 18 18 18
39 40 29 24 26 29 38 40 27 10 2 2 2 3 5 6 6 5 5 4 4 5 5 5 5 6 6 6 6 6 6 6 7 6 6 7 6 6 6 6 6 6 7 7 7 7 7 7 8 9 10 11 11 11 11 11 11 12 12 13 14 14 14 14 14 14 14 14 14 14 13 13 13 13 13 14 14 12 12 13 13 17 20 20 20 20 19 19
39 40 28 22 31 38 32 22 14 7 2 2 3 4 6 6 6 6 6 5 5 5 4 5 5 6 6 6 6 6 7 6 6 7 7 7 7 7 7 7 7 7 7 7 8 8 8 8 8 10 10 11 11 12 12 11 12 12 13 14 14 15 15 15 15 15 15 14 14 14 14 13 13 14 14 14 14 13 13 14 15 18 21 22 21 21 21 20
39 40 24 18 34 37 18 6 6 4 2 3 4 6 7 6 6 6 6 5 5 4 4 5 5 6 6 6 7 7 7 7 7 7 7 7 7 7 7 8 8 7 8 8 9 9 9 9 9 10 11 11 12 12 12 12 13 13 14 14 15 16 16 16 17 16 16 16 15 14 14 14 14 15 14 14 13 13 14 15 15 19 22 23 23 22 22 22
42 41 24 15 23 20 8 5 5 3 2 4 6 7 7 6 5 5 5 5 5 5 5 6 6 6 6 6 7 7 7 7 7 7 7 8 7 7 8 8 8 8 9 9 9 10 9 10 10 11 12 12 13 13 13 14 14 15 15 15 16 16 17 18 18 17 17 17 16 16 15 14 15 15 14 14 14 13 15 16 16 20 23 24 24 24 24 24
46 36 19 10 10 6 5 6 4 3 2 3 5 7 7 6 6 5 5 5 5 5 5 6 6 6 6 7 7 7 8 8 7 8 8 8 8 8 8 8 9 9 9 10 10 10 10 11 11 11 12 13 14 14 14 15 15 16 16 16 17 18 19 19 19 19 20 19 18 18 16 14 15 15 15 15 15 15 16 17 17 20 24 25 25 26 25 25
38 26 12 7 7 6 6 4 3 3 2 3 5 7 7 6 5 5 5 5 5 5 6 6 7 7 7 7 8 8 8 8 8 8 8 8 9 9 9 9 10 10 10 11 11 11 11 11 12 12 13 13 14 15 15 16 16 17 17 18 19 20 20 22 23 22 22 22 21 21 18 15 16 17 17 17 16 17 17 17 18 21 25 26 27 28 28 28
29 27 16 6 7 9 7 4 3 3 3 4 5 6 7 6 5 5 4 5 5 6 6 7 7 7 8 8 8 8 8 9 8 9 9 9 9 9 10 10 10 11 11 11 12 12 12 12 13 13 13 14 15 16 16 17 17 18 18 19 22 22 23 25 26 25 26 26 24 24 21 16 17 19 18 18 18 18 18 18 19 23 27 28 29 30 31 31
30 27 15 4 6 12 9 5 3 5 6 5 5 7 7 6 5 5 5 5 6 6 7 7 8 8 8 8 8 8 8 9 9 9 9 9 10 10 11 11 11 12 12 13 13 13 13 13 14 14 14 15 15 16 17 17 18 19 20 21 24 24 24 26 28 28 29 28 26 26 23 18 18 20 19 20 19 20 20 18 20 25 30 31 32 33 34 34
30 13 6 5 6 10 7 4 5 7 7 6 6 7 7 7 5 5 5 5 6 6 7 7 8 8 8 8 8 8 8 9 9 9 10 10 10 10 11 11 12 12 13 14 14 14 14 14 14 14 15 15 16 17 17 18 19 21 23 23 24 25 25 26 28 29 28 28 26 26 24 19 19 22 21 21 22 22 20 19 21 27 32 33 34 36 36 37
30 7 3 5 5 10 5 3 8 8 8 8 7 7 7 7 5 5 5 5 6 6 7 8 8 8 8 8 8 9 8 9 9 9 10 10 11 11 12 12 13 13 14 14 14 14 14 15 15 15 15 17 18 18 18 19 21 23 24 23 24 26 26 26 28 28 27 27 26 26 24 20 21 24 24 23 23 23 21 20 22 28 34 36 36 37 38 39
35 14 4 3 7 14 7 3 9 9 9 9 8 7 7 6 5 6 5 5 6 6 8 8 8 9 8 9 9 8 9 9 9 10 10 11 11 12 12 13 13 14 15 15 15 14 15 15 15 15 17 18 18 19 20 21 22 23 24 24 24 25 26 29 30 29 28 28 27 28 25 21 21 24 25 25 25 23 21 21 23 29 35 38 38 39 40 41
34 19 7 4 7 12 6 4 9 9 9 8 7 7 6 6 6 6 6 6 6 7 8 8 9 10 9 9 9 9 9 9 9 10 10 11 12 12 12 13 14 14 16 16 16 15 16 16 16 17 17 18 18 19 21 22 24 24 24 25 26 26 26 29 31 30 31 30 27 28 25 20 21 24 26 27 26 23 22 24 26 31 37 39 39 40 41 43
21 15 9 7 6 8 5 5 8 9 9 8 7 7 6 6 6 7 7 7 8 8 9 10 10 9 8 9 9 9 9 9 9 10 11 12 12 12 13 13 14 15 16 16 16 16 16 16 17 17 17 17 18 19 21 22 24 26 26 26 27 27 25 27 30 30 33 32 26 27 25 20 22 24 25 26 25 24 25 27 31 34 38 40 40 42 43 43
10 9 9 8 7 7 5 5 8 9 9 9 8 7 7 8 8 8 8 8 9 10 10 11 9 8 8 9 9 9 9 9 10 10 11 12 12 13 13 14 14 15 16 16 16 16 17 17 17 17 18 18 19 21 22 23 25 27 28 27 26 27 26 26 29 30 34 33 27 27 25 20 23 24 24 25 25 26 29 32 35 37 39 41 42 43 43 42
7 9 9 9 8 7 6 6 9 10 10 10 8 8 8 8 10 10 9 9 9 9 9 9 9 8 8 8 9 9 9 9 10 10 10 12 13 13 13 14 15 15 16 16 16 16 17 17 17 18 18 18 20 22 23 24 26 28 30 28 26 28 27 26 28 30 34 34 29 27 25 20 21 24 25 27 27 29 32 35 38 39 40 42 42 42 42 42
6 9 9 7 9 9 8 8 10 10 10 10 9 9 9 9 10 9 8 9 8 8 8 8 9 8 8 8 9 9 10 10 10 10 10 12 13 13 14 14 15 15 15 16 16 16 17 17 17 18 18 20 21 23 24 25 27 30 32 29 27 29 30 30 29 30 34 34 30 28 25 21 21 25 26 28 29 31 34 37 40 40 40 41 40 41 42 41
6 7 7 7 10 11 10 10 11 11 11 10 9 9 9 8 8 8 8 8 8 8 8 8 8 8 8 9 8 9 10 10 10 9 10 12 13 14 14 14 15 15 15 17 16 16 17 18 18 18 19 20 22 24 26 26 27 31 32 30 29 30 32 32 31 31 31 31 29 28 26 22 21 26 27 29 31 32 34 37 39 38 38 38 38 38 38 37
7 5 6 8 11 11 11 11 11 11 11 10 10 9 8 8 7 8 8 8 7 7 7 8 8 8 9 8 9 9 9 11 11 10 10 11 12 13 14 15 15 15 16 17 16 16 17 18 19 20 20 21 23 24 27 29 28 29 30 30 30 31 31 31 32 32 30 30 29 29 35 31 23 25 29 30 31 33 36 36 34 35 36 34 31 31 32 31
6 6 8 11 12 12 12 12 12 11 11 10 10 9 8 8 8 8 8 9 8 7 7 8 8 9 9 9 9 9 9 11 12 11 10 11 13 13 14 15 15 16 16 17 16 16 17 18 19 20 21 22 24 25 28 31 31 31 30 30 31 32 31 31 33 34 33 33 30 30 39 38 24 23 28 30 31 34 36 33 30 31 30 27 24 24 26 25
5 9 12 12 13 13 12 13 12 11 11 11 10 10 10 9 9 9 9 9 9 8 8 8 8 9 11 11 10 10 10 11 11 11 11 11 12 13 14 15 16 16 16 17 16 15 16 18 19 20 22 23 25 27 29 31 33 32 30 31 33 32 32 32 32 34 35 33 31 30 35 38 30 23 27 29 30 34 33 29 27 26 24 21 21 22 23 23
7 11 14 13 13 13 12 12 12 11 11 11 11 11 10 10 10 10 9 9 10 12 11 10 9 9 10 11 10 10 9 10 10 10 11 11 12 13 14 15 16 16 16 17 16 15 16 17 19 20 22 24 26 28 30 32 33 33 32 33 33 32 32 31 31 35 36 33 32 31 32 42 37 23 26 30 29 34 30 26 25 22 21 21 22 24 25 25
9 12 13 13 13 12 13 13 12 12 11 11 11 11 11 11 11 11 10 9 10 12 12 12 11 9 9 9 9 9 9 9 10 10 11 11 12 13 13 14 15 16 16 16 16 16 16 17 18 20 22 25 26 28 30 32 33 34 35 35 33 32 29 29 34 35 35 35 34 33 34 45 41 24 24 30 31 33 29 25 25 21 22 26 27 29 29 28
9 11 12 12 12 12 13 13 12 12 12 12 12 11 12 11 11 13 12 11 12 13 13 14 13 11 10 10 9 9 9 9 10 10 11 11 12 12 13 14 15 16 15 16 16 16 16 17 18 20 22 24 25 29 31 32 34 34 36 36 32 31 28 31 36 32 38 46 38 33 35 44 46 29 22 29 32 32 28 26 26 23 25 30 34 37 36 35
9 9 11 11 11 12 12 12 12 12 12 12 12 11 11 11 12 15 14 11 13 13 13 13 13 12 11 10 10 9 9 9 9 10 10 10 12 12 13 14 15 16 16 16 16 16 16 16 18 19 21 24 25 28 30 32 34 34 37 38 31 30 30 32 34 31 45 55 41 34 37 45 49 32 21 29 31 28 28 28 29 28 27 29 38 44 44 45
10 8 10 9 10 11 10 11 11 10 11 11 11 11 11 12 13 13 12 10 10 11 11 12 11 11 11 10 10 9 9 9 8 9 9 10 11 12 13 14 15 17 17 17 17 16 16 15 17 20 21 24 26 28 31 31 33 35 37 36 34 41 46 47 51 48 49 50 38 37 44 46 42 27 21 28 26 25 27 28 32 33 30 31 39 44 43 45
10 8 9 8 8 10 9 10 10 9 10 9 10 10 10 14 13 9 9 9 10 11 12 12 12 12 12 10 10 9 9 9 8 9 9 9 11 11 13 14 15 18 18 19 19 17 17 16 17 21 22 23 25 28 30 32 34 36 37 35 37 51 62 69 72 61 50 46 39 42 50 45 31 21 23 25 22 24 27 30 34 34 34 37 41 44 45 47
10 8 9 8 8 9 8 8 8 8 9 8 8 9 10 14 12 9 10 10 10 12 12 13 13 12 12 10 10 9 9 9 9 9 9 10 11 11 13 14 15 18 19 20 21 20 21 20 18 20 21 23 25 28 30 33 35 35 36 37 37 43 51 60 64 55 50 52 46 44 46 39 26 21 22 22 22 26 28 31 35 36 39 43 44 47 51 52
9 9 9 9 8 9 7 7 7 7 8 7 7 8 9 11 10 10 11 11 11 12 11 12 12 11 11 10 9 9 9 11 10 9 10 10 11 12 12 14 15 17 19 20 21 23 24 22 19 20 22 23 25 28 30 32 35 34 35 38 40 41 41 47 52 47 51 63 60 48 39 31 25 23 21 21 25 30 31 35 40 41 42 41 39 41 44 47
9 9 9 9 8 8 6 5 6 7 7 7 7 8 8 9 10 10 11 10 11 11 11 11 11 11 11 10 9 9 10 11 10 10 11 10 11 12 12 14 16 17 19 21 22 24 24 22 20 21 22 23 26 28 30 31 34 36 38 40 40 41 40 43 46 45 56 73 64 43 34 31 28 25 20 21 28 31 35 40 41 38 35 32 31 33 36 41
9 8 8 9 7 6 6 5 6 7 7 7 7 8 8 8 9 9 9 10 10 10 11 11 11 12 12 10 10 10 10 12 12 12 12 12 12 13 14 15 16 18 20 21 23 25 26 24 22 21 22 24 26 28 29 30 33 36 39 41 40 41 42 42 47 57 72 83 67 42 37 38 35 30 22 21 29 33 37 42 38 31 28 30 33 36 37 39
8 7 6 7 6 5 6 6 7 7 6 8 8 8 9 8 9 9 9 9 9 10 10 10 11 11 11 11 10 10 12 13 13 13 14 14 13 14 15 15 16 18 19 22 24 25 27 27 24 22 22 24 26 28 30 29 31 35 39 40 40 42 45 45 51 61 71 82 73 51 42 39 34 32 24 22 29 33 37 42 38 32 31 34 37 42 46 45
7 6 5 6 5 5 6 6 7 6 7 8 9 9 9 9 9 9 9 10 9 10 10 10 11 11 11 11 11 12 13 13 13 14 15 15 15 14 15 16 17 19 20 22 25 26 28 30 28 24 23 25 26 27 29 29 32 35 38 41 41 43 46 47 51 54 61 78 82 68 58 46 30 25 25 25 30 33 38 43 42 39 37 39 42 47 53 57
6 5 5 6 6 7 7 6 7 7 8 8 9 10 10 9 9 9 9 9 9 10 10 10 10 11 11 11 12 13 14 14 13 14 14 15 14 14 15 16 18 19 21 23 25 26 28 31 30 26 24 25 26 27 29 30 34 37 38 41 42 44 47 47 48 47 52 72 88 88 79 50 22 21 26 27 32 35 39 43 46 45 41 42 44 47 53 61
6 6 7 7 7 7 7 7 8 8 9 9 9 9 9 9 8 8 9 9 9 10 11 11 11 12 12 12 13 14 15 15 14 14 15 14 14 15 16 17 18 20 22 23 25 26 28 31 31 28 25 24 25 26 27 29 33 35 38 40 41 44 47 51 58 52 46 58 70 80 78 46 19 22 27 29 35 38 41 46 48 47 43 42 42 43 48 53
7 7 7 7 8 9 9 9 9 9 9 9 9 8 8 8 8 8 9 10 11 11 11 11 11 12 13 13 14 15 16 16 15 15 15 14 15 16 17 18 19 20 22 23 24 26 28 31 31 28 26 26 25 25 26 29 32 34 36 37 39 43 44 49 60 54 47 53 54 65 76 49 19 22 29 33 38 39 44 49 48 45 42 42 42 40 40 39
7 7 7 7 10 11 11 10 9 9 8 8 8 8 8 9 8 9 10 10 11 11 11 12 12 13 14 14 15 16 16 17 17 16 16 16 16 17 17 19 20 21 23 24 25 27 29 32 32 30 27 25 24 23 25 28 32 33 35 36 38 42 42 45 52 49 50 55 53 68 82 49 18 25 34 36 40 44 48 49 45 44 42 41 41 36 34 31
7 7 8 8 10 10 9 9 8 8 8 7 8 8 8 9 9 10 11 11 11 12 12 13 13 14 15 15 16 16 17 18 19 18 17 16 16 17 18 20 21 23 25 26 26 28 30 32 33 35 35 34 31 29 28 29 32 33 35 37 39 41 44 46 49 51 54 53 51 68 75 44 23 33 38 38 45 48 49 47 43 43 42 40 38 33 32 29
8 9 9 9 9 9 8 8 8 8 8 8 8 8 9 9 10 10 11 11 11 12 13 13 14 15 15 16 17 17 18 18 19 19 18 17 17 18 19 20 22 23 24 25 27 28 30 31 31 35 41 44 41 36 33 33 35 36 36 38 40 42 46 48 50 55 58 54 51 58 56 39 32 39 39 42 50 51 48 45 42 42 41 37 34 32 31 30
10 10 10 9 8 8 8 8 8 8 8 9 9 9 9 9 10 10 11 11 12 13 14 14 15 16 17 18 18 18 18 18 19 19 18 18 19 19 20 21 22 23 24 26 27 29 31 30 29 31 34 35 34 32 33 36 38 37 36 39 42 42 45 49 55 57 54 55 56 50 43 41 42 41 42 47 54 53 48 43 42 42 38 35 33 32 32 33
10 10 9 8 8 7 7 8 9 9 9 9 9 8 9 10 11 12 12 13 13 14 14 15 16 18 18 19 19 19 19 19 19 19 18 19 19 19 21 22 22 24 25 26 28 30 32 30 29 31 29 28 29 29 32 36 36 34 34 37 39 40 44 49 53 50 48 57 60 47 42 49 47 42 47 54 54 49 44 41 41 40 36 34 33 31 32 34
9 9 8 8 8 8 9 9 9 9 8 8 8 8 10 12 13 14 13 14 14 15 16 16 17 19 19 20 21 20 20 20 19 19 19 19 19 20 21 21 22 23 23 26 28 29 32 31 29 29 27 25 27 28 30 34 33 31 33 35 37 39 43 44 44 45 51 60 58 47 49 53 48 46 53 53 48 45 43 40 39 38 36 33 32 32 33 35
7 6 6 7 7 7 8 7 7 8 8 8 9 10 12 13 14 15 15 15 15 15 17 17 18 20 20 21 21 21 22 22 21 20 20 20 20 21 22 21 22 23 23 26 27 28 32 33 29 30 28 23 24 27 29 32 32 30 31 36 41 42 43 43 43 47 55 58 53 51 55 53 48 52 54 47 44 46 43 38 38 37 33 33 37 37 37 41
5 5 5 5 6 6 6 6 7 8 8 11 12 13 14 15 15 16 15 16 16 16 17 18 19 20 21 22 22 22 23 23 22 22 21 21 21 21 22 23 22 23 24 25 27 28 32 32 30 32 31 24 23 26 28 32 35 33 34 39 43 44 44 47 47 50 55 55 52 55 56 51 50 53 50 45 45 47 42 38 36 32 30 36 45 46 47 53
5 5 5 5 6 6 7 8 9 10 11 14 15 15 16 15 15 16 16 16 17 17 18 18 19 20 21 22 23 23 24 23 23 24 23 23 23 22 23 23 23 24 25 25 27 28 30 32 31 35 37 29 24 27 30 33 35 35 38 42 44 46 49 50 50 51 52 53 53 55 56 54 53 50 46 44 44 43 41 37 31 30 36 42 50 57 64 70
6 6 6 7 8 9 11 12 13 14 15 15 16 16 16 16 16 17 17 17 18 18 19 19 20 21 21 22 23 23 24 24 23 23 23 22 22 22 22 22 23 24 24 25 27 26 29 33 33 40 44 33 26 31 33 32 38 41 41 43 46 50 53 53 50 49 49 53 56 57 57 56 52 46 42 42 39 37 39 37 34 42 51 49 51 66 77 78
Wind_Speed
10 13 13 13 11 11 11 10 10 10 11 9 9 10 11 10 9 9 10 10 10 11 11 11 11 10 10 10 11 10 10 12 12 11 12 12 9 8 7 7 6 5 4 4 4 5 5 5 5 6 6 6 7 7 7 8 9 10 10 10 10 9 10 10 11 12 13 13 13 12 13 13 12 12 13 14 15 16 17 18 20 20 22 22 23 23 24 24
8 10 11 11 11 10 11 11 9 9 10 7 7 9 9 9 9 9 10 10 10 10 11 12 12 11 11 10 11 11 11 12 13 12 10 9 8 8 7 7 6 5 4 4 4 4 4 4 5 6 7 7 7 7 7 8 9 10 10 10 11 10 11 11 11 13 13 13 14 14 13 12 12 13 14 14 15 17 17 19 20 21 22 23 24 24 24 25
7 8 9 9 11 10 10 10 8 9 9 4 6 7 8 8 8 10 10 9 9 10 11 11 12 11 10 10 10 11 10 11 14 11 7 7 7 7 7 7 6 5 4 4 3 3 4 4 5 7 7 7 7 7 7 8 9 9 9 10 11 11 11 12 11 12 13 14 14 14 14 13 13 13 14 15 16 18 18 19 20 21 23 24 25 24 24 25
6 6 7 7 9 8 9 10 8 9 6 4 6 7 7 8 9 10 10 9 10 10 12 12 12 12 11 11 11 11 10 12 13 9 7 8 6 5 6 6 6 5 4 4 3 3 4 4 6 7 8 9 9 8 7 7 8 8 9 10 11 12 12 12 12 13 14 14 14 15 15 14 14 14 15 16 18 18 18 19 20 22 24 25 25 25 24 25
3 4 5 6 7 7 8 8 8 8 4 6 7 7 7 7 9 10 10 10 11 12 13 14 13 12 11 11 10 10 10 10 10 8 8 8 6 5 5 5 6 5 4 4 3 4 5 6 6 7 8 10 11 9 8 9 9 8 9 9 11 12 12 13 13 13 14 15 15 15 16 15 16 16 16 18 18 18 18 19 20 22 24 25 25 24 24 25
7 2 4 5 6 6 7 8 8 4 3 6 8 7 7 8 9 10 10 10 11 12 12 11 11 10 10 9 9 8 7 7 8 9 9 8 7 6 6 6 5 5 5 4 5 5 6 7 6 7 8 9 11 10 8 10 10 8 9 10 10 11 12 13 14 15 16 16 16 16 16 16 17 17 18 19 19 19 19 19 20 22 24 25 25 25 25 25
14 5 3 5 5 6 7 7 6 2 5 6 7 8 8 9 10 10 10 11 11 10 9 10 10 10 10 10 10 10 8 8 8 9 9 8 8 7 7 6 5 5 6 6 6 6 6 6 6 6 8 8 10 10 9 10 10 9 10 11 10 10 12 14 14 16 17 17 17 16 16 17 18 18 19 19 19 19 19 19 21 23 25 25 25 25 25 25
14 7 2 5 4 5 5 3 3 3 6 6 7 8 8 9 11 11 10 10 9 8 10 11 10 10 9 8 10 11 9 9 8 8 9 9 8 8 7 6 5 6 6 6 6 6 6 6 6 6 7 8 10 11 10 10 11 10 11 12 11 11 13 14 15 16 17 18 19 18 18 18 18 20 21 19 19 19 18 19 21 23 25 25 25 26 25 25
12 7 2 4 4 3 2 5 5 5 7 7 8 8 9 9 9 10 10 10 9 9 11 10 9 8 8 7 9 10 9 8 8 8 8 8 8 7 7 6 6 5 6 6 6 7 7 7 6 6 7 8 9 11 10 10 11 12 13 14 13 14 16 17 17 17 18 19 21 21 20 19 19 22 21 18 18 18 18 20 20 23 25 26 26 26 26 26
12 7 1 4 3 1 3 6 6 8 8 7 8 9 9 9 9 11 11 11 11 11 10 9 9 9 8 8 8 8 8 7 7 8 8 8 7 6 7 7 5 4 5 6 7 8 7 7 7 7 8 8 9 11 9 9 11 12 13 14 14 16 18 19 20 19 19 21 22 21 21 20 20 23 20 16 18 18 18 19 20 23 25 26 26 27 27 27
12 8 2 2 4 5 5 7 8 9 9 8 9 10 10 10 11 11 12 12 12 11 10 9 7 7 8 8 8 7 8 7 7 8 8 7 6 7 7 6 5 5 6 7 8 8 7 7 8 8 8 9 10 11 9 9 11 11 12 13 13 15 17 19 20 20 21 22 22 22 23 22 19 20 19 16 17 18 19 19 19 22 25 26 27 27 27 27
11 8 5 5 7 7 7 8 10 10 9 9 10 10 11 11 12 12 12 13 12 11 9 7 5 5 7 8 8 8 7 7 7 7 7 7 7 7 6 5 6 7 7 8 8 8 8 8 8 8 9 10 11 11 10 11 12 12 13 13 12 14 16 18 19 21 22 22 22 24 24 19 15 17 18 17 17 18 19 18 18 22 24 25 26 26 27 27
10 7 5 6 7 7 8 9 10 10 10 10 11 12 12 12 13 13 13 12 10 9 8 7 6 6 7 8 9 8 7 7 6 6 6 7 7 6 6 6 7 7 8 8 9 8 9 9 9 9 9 11 11 11 12 12 12 12 14 14 14 15 15 16 19 20 20 21 22 22 23 17 13 17 18 16 17 17 18 17 18 21 24 25 26 26 26 26
8 5 5 6 8 8 9 10 10 10 10 11 12 13 13 13 14 14 12 11 10 9 8 7 7 7 8 8 8 6 6 6 6 6 6 6 7 6 6 7 7 8 9 9 9 9 9 10 10 9 11 12 12 13 14 13 12 14 15 14 15 16 16 17 19 20 20 22 22 21 23 18 13 16 19 18 18 18 18 16 17 21 23 24 25 26 26 25
7 7 8 7 8 9 9 10 10 10 10 12 13 13 13 13 13 13 12 12 11 10 8 7 7 8 8 8 7 5 5 6 6 6 5 6 6 6 6 6 7 8 9 9 9 10 10 11 11 10 12 13 13 15 15 14 13 14 14 14 16 16 18 20 19 21 23 24 24 21 23 21 15 15 19 20 19 19 18 16 17 21 23 24 24 25 25 25
7 6 7 7 8 9 9 9 10 10 11 12 13 13 13 13 13 13 13 13 11 8 7 6 7 7 7 7 6 5 5 5 5 5 5 5 6 7 7 8 8 8 9 10 10 10 10 12 11 11 13 13 14 16 16 14 13 14 14 16 18 18 20 21 20 23 25 25 24 23 26 25 18 17 20 21 21 21 18 14 16 21 23 24 24 25 26 26
8 4 5 6 8 9 9 10 10 11 11 11 12 13 13 12 12 12 13 12 10 8 7 6 6 5 5 5 5 4 4 5 5 4 5 6 5 7 8 8 9 9 10 11 12 12 12 13 12 12 13 13 14 15 14 13 13 14 16 18 20 21 22 22 23 26 25 24 24 25 29 27 21 20 21 21 23 22 16 14 17 20 23 24 24 25 26 27
9 5 4 6 8 8 8 10 10 11 11 10 11 12 12 12 12 11 12 11 10 9 8 7 6 4 3 4 4 3 3 4 4 4 5 6 5 6 7 8 9 9 11 12 12 12 12 12 12 12 13 12 13 14 13 13 15 16 17 19 20 22 24 23 26 26 22 23 26 27 29 27 23 22 20 21 24 22 15 14 17 20 23 24 25 25 26 27
10 6 4 6 8 8 8 10 10 11 10 9 10 11 11 11 11 11 11 11 10 8 7 6 5 3 3 4 3 1 2 3 4 5 5 6 6 6 7 8 9 9 10 11 12 11 11 12 11 12 12 11 13 14 14 15 17 17 18 20 20 23 24 23 27 24 22 27 27 25 26 26 24 21 18 20 23 19 13 14 17 20 23 25 25 26 27 28
10 7 5 5 7 9 10 10 11 10 9 9 9 10 10 10 10 10 10 10 9 8 7 6 5 3 4 4 2 1 1 2 3 5 5 6 7 7 7 9 9 9 10 11 12 10 10 11 11 12 12 11 14 15 15 17 18 18 19 20 21 23 24 25 26 23 27 32 28 23 24 25 25 20 16 19 19 13 12 14 17 20 23 25 25 26 28 29
9 7 6 6 6 9 11 11 11 10 9 8 8 9 9 10 9 9 9 8 7 7 7 7 5 4 4 4 3 2 2 2 3 4 5 5 7 8 7 8 9 9 10 10 11 11 10 11 12 13 12 12 15 16 16 18 19 20 20 21 22 22 25 27 25 27 33 34 30 23 22 24 23 16 13 13 11 10 12 15 18 21 23 25 26 27 29 30
9 8 7 6 6 8 10 11 10 10 9 8 9 9 9 9 8 8 8 6 6 7 7 6 6 6 6 5 5 4 4 4 4 5 5 6 7 8 7 8 9 9 10 10 11 11 10 11 12 14 12 12 15 16 18 18 19 20 21 22 22 22 26 26 25 31 35 36 33 23 22 25 15 10 14 10 7 9 13 18 20 22 24 25 27 29 30 32
9 8 7 5 5 7 9 10 9 9 8 8 9 9 8 7 7 7 7 5 6 7 7 7 8 9 8 7 6 6 6 6 6 6 6 6 7 8 8 8 9 10 10 10 11 11 10 11 13 13 12 13 15 16 18 19 20 21 21 21 20 22 25 26 29 33 33 35 30 23 27 23 11 13 16 8 8 12 15 20 23 23 25 26 28 30 31 33
8 8 7 5 5 7 8 8 8 8 7 7 9 9 7 6 6 6 6 6 7 9 9 9 10 11 10 9 8 7 7 7 8 7 6 6 8 8 8 8 9 10 10 10 11 11 10 11 13 13 12 12 14 16 17 20 20 20 20 20 20 23 25 28 32 34 33 29 21 24 28 17 11 18 14 8 11 14 16 23 25 26 27 28 29 30 31 33
7 7 7 6 6 7 8 8 8 8 7 8 8 7 6 6 6 5 5 6 8 10 11 11 12 12 11 11 10 10 9 9 9 8 7 7 8 8 9 9 9 10 10 9 12 11 10 12 13 12 12 13 14 15 17 20 21 21 20 19 22 24 25 27 31 33 32 23 17 22 17 10 18 20 10 10 13 13 18 25 27 28 28 29 31 31 32 34
7 7 7 7 7 7 8 8 8 8 8 7 7 6 5 5 4 4 6 8 10 12 14 13 12 11 12 12 11 11 10 10 10 9 9 8 9 9 9 9 9 10 10 9 12 11 11 13 13 13 13 13 14 15 16 19 22 22 21 21 23 24 25 28 30 30 24 18 19 19 7 10 25 21 10 12 14 13 20 26 29 29 29 31 32 33 34 35
7 7 8 8 7 6 7 7 6 8 8 7 6 4 4 3 3 4 6 7 9 12 14 15 14 13 12 12 12 12 11 10 10 10 10 10 10 10 10 10 10 11 10 10 11 12 13 13 14 14 13 14 15 14 16 19 21 22 22 22 23 23 25 28 28 25 20 20 20 16 8 10 20 21 14 14 14 15 21 27 29 29 30 32 33 34 35 36
7 8 8 7 6 5 6 6 6 8 8 7 6 4 3 2 3 5 4 3 4 8 11 14 16 17 16 14 14 13 13 12 11 11 11 11 11 11 12 12 11 11 11 11 12 14 14 14 14 15 13 14 15 14 16 19 20 22 23 23 23 23 26 26 23 19 18 18 13 10 8 6 16 21 14 14 16 16 23 28 28 30 32 33 35 36 37 38
8 8 7 6 5 5 5 6 7 8 8 7 6 5 4 3 5 5 3 2 4 7 8 9 11 14 16 16 16 15 15 15 14 13 14 14 13 13 13 13 13 13 12 13 14 14 14 15 15 15 14 15 16 15 17 19 20 22 22 22 23 24 25 22 19 16 14 12 7 6 5 3 14 18 10 13 18 17 25 30 28 31 33 35 37 38 39 40
8 8 7 7 6 5 6 6 7 9 9 9 8 7 6 6 6 3 2 4 7 8 9 9 10 11 13 14 15 15 15 16 17 17 16 16 15 14 14 15 14 13 13 14 14 14 16 16 15 15 14 15 17 16 16 20 22 22 22 23 23 24 22 17 14 11 8 6 3 4 4 3 9 12 11 14 16 18 28 31 30 31 32 36 40 40 41 42
9 8 8 7 6 5 5 6 7 8 9 10 10 10 9 9 7 3 3 6 9 10 10 10 11 11 13 14 14 15 16 17 18 18 18 18 17 16 16 15 15 15 15 14 14 16 17 15 15 15 13 16 18 15 16 21 22 22 24 24 22 19 15 10 8 4 2 3 3 5 8 6 8 11 15 15 14 20 28 30 32 34 33 37 41 42 42 42
9 9 8 7 6 5 5 5 6 7 8 10 10 11 10 9 8 8 8 8 7 6 7 8 9 11 13 14 16 17 18 19 20 20 20 20 18 18 17 15 15 15 14 14 16 18 17 15 15 14 14 17 16 15 18 20 21 23 23 20 16 11 9 5 3 2 3 4 4 8 12 11 15 15 18 15 15 23 28 31 34 36 36 40 43 44 43 42
10 9 8 7 6 5 5 5 6 7 8 9 10 11 11 8 6 9 11 9 7 9 11 13 14 15 15 17 18 19 20 21 21 20 21 21 20 20 18 17 17 15 14 17 19 17 14 14 14 12 14 16 15 17 19 18 21 24 20 15 10 4 4 4 4 3 5 5 9 17 16 12 15 18 18 14 19 26 30 33 35 36 37 41 44 45 44 44
11 11 9 8 7 6 6 6 7 9 10 10 11 11 11 10 9 11 12 11 13 15 17 17 18 18 18 19 20 20 21 21 20 20 20 20 20 19 18 18 17 16 17 17 16 12 11 11 12 13 15 17 17 18 18 20 23 22 15 11 7 1 1 4 4 3 6 9 15 19 11 8 14 20 16 15 23 27 30 33 34 35 38 42 45 45 45 46
12 12 11 9 9 8 9 10 10 11 11 12 11 12 14 13 12 13 13 13 15 16 18 19 20 21 21 21 21 20 19 19 20 20 20 20 20 20 20 19 18 18 16 14 12 11 10 10 11 16 19 20 19 17 17 20 19 15 14 12 9 5 4 7 9 10 10 9 11 12 11 16 24 21 14 17 25 27 29 31 32 36 40 43 46 46 47 48
13 13 12 11 11 11 12 13 12 13 13 13 13 15 17 15 13 14 14 16 17 19 21 21 21 21 20 18 17 17 17 18 19 20 21 21 21 21 20 19 18 17 16 15 14 11 9 10 15 21 22 20 17 16 18 19 16 15 17 15 11 10 7 7 10 12 6 3 6 9 15 26 28 19 13 19 27 30 29 29 33 39 42 44 47 49 50 49
14 14 14 14 14 14 14 14 14 14 14 14 15 16 16 16 16 17 18 19 21 21 21 21 20 17 16 16 17 18 18 18 17 18 18 18 16 16 15 16 17 16 16 17 15 13 14 17 21 21 20 18 16 17 20 20 19 19 18 15 12 10 6 4 5 5 2 1 6 10 18 27 23 14 16 22 28 33 31 30 36 40 42 46 50 52 52 51
14 15 15 15 15 15 14 14 14 14 14 15 15 15 15 16 16 17 18 19 20 20 20 20 18 17 17 18 20 20 19 18 17 17 18 16 14 13 13 15 15 15 17 17 14 15 17 18 19 19 18 17 19 20 21 21 20 18 17 15 13 8 6 5 4 4 3 2 5 8 14 24 26 22 23 26 29 36 35 33 39 42 43 48 53 55 55 55
13 14 14 14 14 14 14 15 15 14 14 15 14 13 13 14 15 16 17 19 19 21 21 20 18 18 20 21 21 21 20 20 20 19 18 15 14 16 17 17 17 17 18 17 15 17 17 14 15 19 20 20 22 22 21 21 20 19 19 17 14 11 10 9 6 5 4 2 4 6 5 17 31 32 30 29 31 38 39 38 41 44 46 50 54 56 57 57
11 12 12 12 13 14 14 14 14 14 15 15 14 14 15 16 17 17 18 19 20 21 21 21 21 21 23 23 22 21 22 22 21 20 19 18 19 21 19 18 18 18 17 16 17 19 18 15 15 21 24 23 23 22 23 25 23 21 20 17 15 13 11 11 11 13 10 4 2 2 4 22 37 35 30 30 33 38 40 40 43 45 49 52 55 58 59 58
10 10 11 11 12 13 13 13 13 13 14 15 15 16 16 17 18 18 18 19 20 21 22 22 22 22 24 24 22 22 23 23 22 21 20 21 21 19 16 16 16 16 17 18 19 19 18 16 19 25 27 25 25 26 27 28 24 21 21 19 17 16 13 9 8 12 13 10 8 2 7 32 42 31 26 32 36 38 39 40 45 48 51 55 58 59 60 58
9 10 11 12 12 12 12 13 13 13 15 15 16 16 16 17 18 18 19 20 20 21 22 22 22 22 22 22 22 21 21 23 23 21 21 21 20 19 19 20 19 20 20 20 21 20 18 18 22 27 26 24 25 27 25 22 19 17 18 19 18 18 18 12 7 11 13 14 16 7 8 33 41 30 28 35 38 38 39 40 47 52 54 58 60 61 61 59
10 11 12 12 11 11 12 13 13 13 15 15 15 16 16 17 18 18 19 19 20 21 21 21 21 20 20 20 20 20 20 21 20 18 18 19 20 20 20 21 21 20 20 20 20 19 16 16 21 27 29 27 25 22 19 16 15 16 19 22 21 21 23 20 19 21 16 17 20 5 7 32 40 32 32 38 39 39 39 41 49 54 57 60 62 63 62 61
11 11 11 11 11 12 13 13 13 14 15 15 16 16 17 17 17 17 18 19 19 20 20 20 20 20 20 20 20 20 19 18 16 16 18 19 20 20 19 20 20 18 19 19 20 19 17 16 19 22 22 21 19 15 13 17 20 24 27 27 25 25 25 24 26 24 18 23 24 7 11 37 42 36 37 40 38 39 41 44 50 55 59 62 63 64 64 63
10 10 11 11 11 12 13 13 14 15 15 15 16 16 16 17 16 17 18 19 19 19 19 20 20 20 20 19 20 20 19 18 18 19 20 21 21 20 19 20 19 20 21 21 22 22 20 20 22 17 10 10 14 15 18 25 28 30 32 31 30 30 28 27 25 20 17 23 23 17 27 47 47 40 41 40 38 43 48 50 54 58 61 64 65 66 66 64
9 10 10 11 12 13 13 13 13 14 14 15 16 16 15 16 16 18 19 19 18 18 18 18 18 18 17 17 18 18 19 19 20 20 21 22 21 21 21 21 22 23 23 22 23 22 22 24 25 22 20 22 25 28 31 32 32 35 36 34 34 33 31 30 25 25 27 27 29 33 42 51 49 47 45 42 43 51 55 56 59 62 64 66 67 67 66 63
9 10 11 12 11 11 11 11 12 13 14 15 16 16 16 16 17 18 18 18 18 18 18 17 16 16 16 16 17 18 19 19 20 21 22 21 20 20 20 21 22 22 21 22 22 21 24 26 25 26 29 31 33 33 32 32 35 37 35 32 31 29 30 31 29 32 34 27 28 38 41 42 49 50 44 44 51 56 59 60 63 65 68 69 69 68 66 62
10 11 12 12 12 11 11 12 13 14 15 15 16 16 16 16 16 17 18 18 17 17 17 16 15 16 16 17 18 19 19 20 20 21 21 20 21 21 21 22 22 22 23 22 21 22 23 26 28 29 31 33 34 33 32 32 32 32 31 31 30 28 29 31 29 32 33 29 30 39 39 41 48 46 42 48 56 58 59 62 64 67 69 69 68 67 64 61
11 11 11 12 12 13 13 13 13 14 14 15 15 16 16 15 16 17 17 18 17 17 17 16 16 16 17 17 18 19 19 20 21 21 22 22 23 22 23 24 22 23 23 21 22 23 23 25 29 29 32 35 32 30 32 29 27 31 33 30 28 25 23 23 23 24 25 29 34 39 41 44 43 40 46 56 57 57 61 63 65 68 69 67 65 63 62 60
9 10 11 11 11 12 12 12 13 13 13 14 15 15 15 16 16 16 16 17 17 17 16 16 16 17 17 18 19 19 19 20 22 22 22 23 23 23 23 23 23 23 24 24 26 25 24 26 29 29 34 34 28 28 29 26 29 35 31 24 21 18 16 18 22 25 27 32 37 38 42 44 39 42 54 59 57 59 62 63 67 70 69 65 61 59 60 59
8 9 10 11 10 10 10 11 12 13 13 13 14 15 15 15 15 16 16 16 16 15 15 16 17 18 18 18 19 19 19 20 21 22 22 22 23 23 23 24 25 25 26 26 27 27 26 28 28 27 29 31 29 27 27 30 34 29 19 19 19 17 19 22 25 30 34 37 40 41 41 40 42 51 60 60 60 62 62 64 68 68 65 61 58 58 59 58
8 8 9 10 9 9 10 11 12 13 13 13 14 14 15 15 15 16 16 15 15 15 16 17 17 18 18 18 18 18 19 20 20 21 21 22 22 23 23 24 25 25 27 26 27 28 27 27 27 23 22 29 30 26 30 36 26 12 13 20 19 20 25 27 29 33 34 37 41 39 35 38 49 59 62 64 66 66 64 65 65 62 59 59 59 60 59 59
Wind_Direction
96 88 79 68 61 56 57 64 75 89 90 96 123 129 127 129 127 118 113 116 121 121 119 115 112 110 110 114 116 116 115 106 96 85 80 83 86 80 72 67 63 59 57 56 54 50 41 23 5 352 341 336 333 322 313 311 304 300 302 303 300 292 289 289 281 273 269 270 275 278 281 286 293 298 299 299 300 303 308 314 321 326 327 328 330 331 334 336
106 88 76 68 60 57 57 59 66 83 85 102 137 133 132 133 128 120 118 124 129 129 125 120 115 111 111 115 116 114 111 103 93 83 81 86 85 81 77 73 70 62 54 43 39 37 25 11 5 359 346 338 335 329 318 308 301 298 299 298 295 292 288 286 278 269 267 271 279 284 287 290 295 298 297 297 297 300 306 313 321 326 328 330 331 333 334 335
112 83 69 66 56 57 56 53 65 78 79 120 151 137 135 132 128 121 122 131 133 129 122 116 113 112 116 121 120 114 108 98 89 84 84 81 77 79 81 76 71 65 59 42 30 25 10 357 358 359 350 344 344 338 320 306 304 300 297 295 292 291 289 287 278 268 268 272 280 287 289 291 295 298 298 295 294 296 303 312 321 327 330 331 331 332 333 334
110 73 60 62 46 48 50 47 64 73 80 164 162 144 140 130 126 122 126 135 131 124 115 110 110 111 117 117 112 105 96 90 87 88 85 77 75 80 80 73 65 59 56 45 31 19 3 355 358 356 352 353 352 341 324 315 313 303 295 293 293 295 295 291 281 273 274 275 283 290 290 290 292 295 298 295 291 294 302 311 320 327 331 331 330 331 333 334
129 52 49 49 32 37 40 38 51 62 101 184 173 160 153 135 127 126 134 139 132 125 117 114 112 113 114 108 103 95 87 88 88 86 82 77 80 81 77 72 62 50 49 47 31 14 359 358 359 353 354 359 353 341 333 329 321 307 302 300 300 299 296 294 289 286 285 286 290 293 292 290 290 294 297 295 291 292 299 309 318 326 330 330 330 331 333 334
229 300 35 31 23 28 23 22 29 39 163 180 173 167 159 145 135 134 140 142 134 127 121 118 119 122 120 110 103 91 86 96 90 82 80 78 78 74 67 62 53 41 38 32 22 12 359 356 355 351 355 357 350 342 333 330 323 313 313 310 306 300 299 301 299 299 297 295 296 296 295 292 292 293 294 297 295 289 295 307 316 325 329 330 330 331 332 333
231 244 20 18 15 21 23 27 17 324 192 174 170 164 155 148 145 144 146 146 138 131 128 123 122 121 116 111 104 94 88 93 90 80 77 74 71 66 58 51 40 33 27 22 18 6 354 349 350 353 355 351 348 342 326 327 329 324 322 319 313 305 307 308 305 306 306 303 301 300 300 296 297 294 293 298 293 284 293 307 313 323 329 330 331 331 332 333
221 226 347 1 0 17 25 12 334 251 198 180 172 163 153 150 154 155 153 152 144 138 135 127 122 116 111 109 102 96 90 87 85 80 76 72 67 64 58 48 34 25 17 17 12 358 351 343 346 355 352 346 345 341 326 328 334 330 329 327 316 311 315 316 315 316 314 311 308 307 305 302 301 296 296 300 290 282 293 304 310 322 330 331 331 331 332 333
210 215 308 349 355 22 341 288 272 219 196 182 169 158 150 149 157 162 161 157 150 144 138 131 126 120 118 111 98 95 91 84 80 76 73 69 66 65 60 47 28 15 6 9 9 1 352 342 344 345 341 341 341 338 327 327 333 330 328 325 317 317 323 325 325 323 319 317 313 309 306 305 303 299 302 302 289 283 292 301 311 323 330 331 330 331 331 333
209 215 319 349 326 312 266 265 238 203 190 175 162 154 148 147 152 158 159 157 153 146 138 136 134 129 123 108 96 92 87 78 74 71 66 64 60 56 56 46 24 9 4 7 11 4 349 339 338 333 334 335 336 336 329 329 333 328 322 319 317 321 327 328 326 323 322 320 315 311 307 306 304 301 304 299 288 287 293 301 312 323 329 330 330 330 330 332
214 221 255 280 242 235 237 239 220 201 185 169 159 154 152 153 154 154 154 152 147 141 138 142 140 134 123 106 95 88 80 72 69 66 61 58 49 45 49 42 27 20 13 10 11 360 342 334 330 329 335 333 335 337 332 330 329 323 318 317 319 323 326 327 325 323 322 320 315 313 308 307 306 302 302 297 291 291 294 303 312 322 328 328 328 329 330 331
205 211 228 230 218 213 217 222 214 201 186 172 162 160 159 161 162 159 154 149 143 141 144 146 141 131 120 109 98 84 74 69 66 62 57 52 44 40 39 36 30 25 16 9 7 352 333 331 326 331 338 333 336 338 333 330 326 321 319 320 322 323 326 326 324 323 321 317 315 314 309 310 310 304 303 298 295 293 296 304 311 319 326 326 327 328 329 330
191 199 226 222 206 202 209 214 207 199 188 175 169 167 166 167 166 161 155 150 142 140 140 140 142 134 121 107 93 81 74 69 63 57 52 46 42 35 29 29 26 23 16 6 1 345 329 330 328 332 338 335 338 339 334 330 322 320 322 324 324 324 327 326 323 322 320 315 314 311 305 313 318 308 305 298 297 296 297 303 308 318 324 325 326 327 330 329
187 211 241 216 199 203 206 207 201 194 185 176 173 173 172 172 169 163 156 148 142 138 135 137 137 128 115 100 88 82 75 67 60 52 41 38 37 29 24 24 23 20 12 3 355 341 331 335 334 335 338 336 339 339 337 331 321 321 324 326 324 322 327 329 325 324 322 316 314 308 301 312 328 314 307 304 304 301 299 301 305 317 324 324 326 327 330 330
191 224 239 218 200 203 200 199 195 186 181 178 176 176 177 177 173 167 155 148 145 141 137 134 129 117 106 98 93 87 74 65 56 46 32 28 24 19 18 15 18 17 7 1 352 339 336 341 340 339 337 336 339 338 336 332 323 322 323 325 324 322 329 333 328 326 324 318 317 310 299 310 330 320 310 308 308 304 300 301 304 316 324 324 326 328 330 332
200 219 223 212 199 196 189 189 188 180 179 180 179 179 182 182 178 170 157 153 153 150 147 144 133 118 109 105 97 86 72 63 54 42 29 20 10 8 8 6 11 10 4 360 351 343 343 347 343 338 337 337 339 337 334 331 324 324 323 326 327 325 331 335 331 328 326 321 320 312 301 308 323 319 310 308 307 304 302 300 302 316 325 326 328 330 332 334
203 207 194 193 192 188 180 181 182 177 177 180 181 182 182 182 180 171 160 159 163 162 163 159 143 127 122 112 97 87 69 58 53 40 28 20 6 1 2 3 4 1 1 358 352 348 347 348 341 335 338 339 339 335 333 331 328 328 324 327 329 325 331 335 332 329 326 323 323 316 306 308 320 319 314 311 306 307 305 297 300 315 326 328 330 333 334 337
210 212 182 188 194 187 179 181 178 176 178 179 182 182 180 179 176 172 166 164 165 166 168 166 155 142 134 121 107 92 68 56 45 32 24 17 4 359 1 1 0 359 359 354 350 348 344 343 338 336 337 334 334 335 337 336 332 331 326 326 327 323 328 334 332 328 325 323 323 319 308 308 321 325 322 313 303 306 308 297 302 316 326 331 333 335 337 339
209 212 198 199 199 187 184 186 181 181 181 179 181 180 177 176 174 174 170 166 166 169 174 175 173 170 163 149 137 112 55 42 34 24 14 9 1 355 355 358 358 357 355 349 347 345 339 338 336 336 329 320 329 336 340 338 335 332 326 324 323 321 325 330 329 327 326 323 323 322 308 305 322 329 320 303 297 306 310 303 310 319 327 333 335 337 339 340
195 199 200 197 194 189 188 189 187 187 185 182 180 177 176 177 177 176 173 170 173 181 186 190 193 187 181 178 179 200 1 8 12 10 4 2 0 353 350 354 354 351 350 346 343 342 338 337 335 333 324 318 329 335 337 337 335 334 328 323 320 318 321 328 327 325 326 323 325 325 305 306 324 322 303 293 296 310 312 316 324 325 329 335 337 339 340 341
182 182 180 173 181 187 186 189 191 190 187 182 179 178 179 181 184 182 177 180 194 205 205 205 209 207 207 216 226 247 297 340 342 346 354 356 355 350 345 348 347 346 347 343 342 341 338 335 334 332 325 321 329 333 335 336 335 334 330 322 319 316 319 326 325 324 327 324 325 323 306 316 329 317 304 299 302 317 321 332 334 330 333 336 338 340 340 341
181 176 170 164 174 183 184 187 191 189 186 179 179 181 182 186 195 196 194 209 225 221 212 212 223 231 238 241 247 264 279 310 321 317 337 350 347 344 341 342 344 343 343 343 343 339 334 333 334 332 325 322 326 329 333 336 335 334 329 322 318 317 320 324 324 325 327 324 325 323 316 326 335 324 327 323 318 328 332 343 340 334 336 338 340 341 339 340
187 184 180 178 181 184 185 187 187 187 187 185 183 181 186 197 207 209 213 230 226 218 220 228 240 246 249 251 256 269 271 283 299 304 327 339 335 335 334 334 337 339 339 342 341 335 329 332 333 331 325 321 323 326 331 334 333 331 327 322 319 320 322 323 323 325 325 324 324 322 322 329 338 336 336 331 334 335 337 346 343 337 339 341 342 341 338 338
191 193 198 197 186 179 179 181 180 182 190 195 188 184 190 200 206 211 217 226 226 229 238 243 250 253 253 255 261 270 272 276 284 299 316 321 324 325 323 326 329 333 334 336 338 332 327 329 330 329 323 318 319 321 328 330 330 329 327 324 322 322 322 321 322 323 323 323 323 323 325 326 329 336 337 331 337 336 338 345 344 341 342 343 343 341 339 338
193 195 198 194 179 170 168 169 174 180 190 194 189 189 195 199 208 214 221 239 244 242 243 247 252 253 253 257 264 268 272 276 278 291 304 306 312 312 313 317 318 327 331 331 334 330 324 328 328 326 321 318 317 320 326 326 326 329 328 326 325 322 320 320 320 321 322 322 322 327 330 315 322 337 342 330 338 339 340 344 344 344 345 344 343 342 340 340
189 190 188 182 174 164 159 164 174 183 187 188 185 184 190 207 227 234 245 264 264 252 248 247 248 252 254 258 266 267 271 277 275 281 293 296 301 304 306 307 311 322 326 327 330 328 323 325 326 324 320 318 319 320 324 324 325 329 328 326 324 320 319 319 318 319 317 314 317 322 316 294 319 339 349 331 339 339 340 345 344 345 345 344 344 343 342 341
181 182 179 179 178 165 161 168 183 190 189 187 181 176 186 215 257 262 271 285 273 255 251 247 246 252 256 259 266 266 266 276 280 280 285 289 294 298 299 303 308 316 322 321 319 323 324 322 323 321 316 317 318 318 323 325 325 327 326 325 323 319 319 317 314 313 308 310 315 314 302 280 308 332 341 330 338 337 340 345 345 346 346 345 345 344 343 342
177 178 178 184 186 176 177 187 202 206 203 198 191 189 201 241 296 278 277 310 283 263 258 252 248 252 258 261 265 265 262 272 281 281 284 288 291 295 297 302 305 308 317 313 308 319 323 319 320 317 313 316 316 315 322 326 325 325 325 324 321 319 319 315 312 310 308 315 315 306 314 278 297 324 338 331 335 337 341 345 346 348 348 347 347 346 344 343
175 176 183 195 193 194 200 207 217 219 218 218 212 214 233 275 296 281 264 268 277 276 271 264 258 255 258 262 265 266 263 267 274 278 285 288 289 294 295 299 301 301 308 308 306 316 319 317 316 312 311 314 314 314 319 325 325 324 324 322 321 321 321 318 312 310 310 310 295 287 322 317 306 321 340 334 333 336 340 344 346 349 351 350 349 347 345 343
176 180 190 198 197 203 211 221 231 230 232 234 230 235 255 275 281 278 248 256 275 281 276 274 272 264 266 271 272 269 265 268 273 278 283 284 287 292 293 297 299 295 300 305 304 310 315 314 310 308 309 312 315 312 315 325 325 324 325 323 324 325 323 314 302 306 310 299 265 272 310 348 315 321 338 336 335 337 339 342 344 346 350 351 351 348 345 343
180 186 193 198 199 204 217 233 239 242 247 246 244 249 260 273 272 240 220 273 285 284 283 284 279 275 279 282 280 275 273 275 277 278 279 281 284 288 291 294 296 296 299 301 303 309 314 312 308 307 306 311 315 308 313 323 324 325 327 327 330 328 325 311 288 300 303 283 286 280 304 306 268 303 338 341 338 340 341 342 344 343 343 346 348 347 345 344
189 191 197 202 206 214 230 244 252 261 262 258 257 257 263 273 265 244 253 281 293 291 300 307 300 295 293 290 286 283 281 280 281 280 279 280 282 285 288 288 292 297 298 299 303 307 308 309 309 306 306 314 313 307 314 319 322 325 325 330 338 336 341 331 280 285 240 247 283 293 306 290 266 303 342 346 345 346 345 345 345 343 340 341 345 346 346 345
201 200 203 209 213 222 240 257 272 279 277 272 267 264 266 267 256 256 264 273 280 293 303 304 303 302 299 296 292 290 286 283 281 281 280 281 281 283 285 284 289 291 289 298 305 306 307 311 312 308 309 315 311 308 312 313 320 321 320 335 352 7 11 326 284 301 273 261 290 297 302 284 284 323 345 348 352 349 346 346 344 343 342 341 343 345 345 344
209 209 210 214 219 232 253 273 285 288 287 279 271 268 260 248 252 271 278 280 284 293 299 301 302 301 298 296 295 293 290 284 283 282 281 282 282 283 283 284 287 285 286 297 303 303 302 303 311 312 312 315 310 306 308 310 317 317 315 332 340 18 46 273 260 278 289 303 299 293 287 260 298 330 344 351 355 349 344 344 343 344 344 343 343 343 342 341
215 217 218 223 233 250 268 279 286 291 290 281 275 266 253 250 263 276 284 291 295 299 302 303 303 301 299 297 296 295 289 283 284 285 282 282 283 284 285 284 283 282 284 292 297 299 292 287 304 311 311 313 308 301 305 311 315 313 312 314 308 305 274 251 265 272 285 316 303 277 261 276 302 323 346 357 354 350 347 343 343 346 345 343 343 342 341 340
229 229 232 237 249 263 274 279 285 289 288 283 276 264 258 261 270 279 287 294 298 302 303 303 303 302 302 301 299 299 295 288 288 288 286 286 286 284 283 281 279 278 280 285 291 294 284 285 303 309 310 310 304 300 305 310 309 304 305 302 298 307 292 260 274 280 283 315 291 270 275 292 306 321 344 353 350 350 348 342 343 346 345 344 343 342 341 339
240 240 243 249 259 268 274 278 284 287 286 281 273 269 270 272 275 281 288 292 296 299 301 304 303 299 298 298 298 300 298 294 293 292 290 292 290 286 283 281 279 277 279 285 286 284 285 291 301 307 309 308 306 304 305 307 307 300 296 296 300 308 299 269 280 301 337 267 272 267 276 292 300 303 330 344 345 347 345 340 342 344 344 344 343 342 340 337
242 245 248 254 262 268 273 279 283 285 283 279 276 276 278 279 282 287 289 292 295 298 299 301 299 295 294 295 297 298 297 294 295 293 293 292 287 283 286 288 285 281 283 286 282 285 293 297 302 306 307 308 309 306 304 307 308 302 294 291 294 291 277 272 280 309 323 297 283 270 272 288 289 291 320 336 339 343 342 338 340 342 342 343 343 342 340 336
241 245 250 257 263 268 275 280 282 282 279 277 280 283 283 286 289 289 290 293 295 297 298 296 294 294 294 295 297 296 294 293 293 292 291 288 282 286 290 290 288 285 285 286 282 288 295 293 296 304 306 308 309 306 304 305 307 305 295 287 285 278 268 268 257 254 273 268 292 295 272 288 298 307 322 331 337 340 339 336 337 338 339 340 341 341 340 338
243 249 255 261 266 272 279 281 281 281 279 279 283 286 289 291 291 291 292 294 295 296 296 295 295 293 293 295 295 294 294 292 293 291 287 283 285 290 292 288 288 286 285 286 286 292 295 284 284 298 304 307 308 307 304 302 303 299 291 287 284 279 271 274 270 261 258 225 241 332 269 286 305 322 329 332 338 339 337 334 332 335 336 337 339 339 339 338
251 258 262 268 273 277 280 280 282 283 282 285 288 289 291 290 291 294 295 296 296 296 295 296 295 294 293 293 292 293 293 291 292 291 286 287 289 290 290 289 290 290 288 290 291 294 294 284 282 292 301 305 307 306 303 301 300 294 290 288 285 281 270 270 279 263 253 239 240 225 272 289 308 332 336 334 339 338 336 332 329 332 334 335 338 339 338 337
259 266 270 273 275 277 280 281 285 288 288 289 290 290 291 291 294 297 298 299 299 298 298 298 298 296 294 293 293 293 292 291 292 291 288 290 290 288 289 291 292 292 291 292 293 294 292 287 287 291 300 307 307 306 305 303 300 293 291 290 289 283 270 259 261 267 261 255 256 234 253 290 311 338 335 332 337 336 334 330 329 331 332 334 337 337 337 335
268 271 272 274 274 277 281 285 289 291 290 291 289 290 291 293 298 301 302 303 302 302 302 301 301 299 296 297 297 296 295 295 294 292 291 292 292 292 293 294 295 294 293 292 293 294 294 291 292 297 304 308 306 306 308 308 306 300 298 297 293 288 282 274 267 271 272 260 260 226 228 286 312 336 330 330 336 333 332 330 329 330 330 334 335 335 336 333
269 268 269 273 275 279 284 287 292 291 289 289 290 292 295 297 301 304 305 306 306 305 305 304 303 300 299 299 298 297 298 296 293 293 294 294 295 297 297 296 296 293 293 293 292 294 293 289 293 302 313 316 312 311 312 311 309 304 301 300 296 294 291 283 273 270 269 265 265 231 242 285 311 330 327 332 335 330 331 330 329 330 331 333 334 333 333 331
267 269 272 276 280 284 287 289 290 289 290 292 292 295 298 300 304 306 306 307 307 307 307 306 304 302 302 301 299 298 297 293 291 293 295 296 297 298 297 295 295 294 295 294 294 294 290 287 291 293 294 299 300 303 307 307 305 301 300 298 297 296 291 285 277 265 258 266 262 244 267 291 311 326 328 335 336 330 332 331 329 331 332 332 332 332 332 330
269 275 280 284 288 289 288 288 289 290 293 295 296 299 303 306 308 307 308 310 311 311 310 309 309 308 307 304 302 301 299 296 295 295 298 301 298 297 296 293 294 295 295 296 297 296 290 291 294 289 280 284 292 299 303 302 300 299 300 298 297 297 293 284 271 258 263 269 263 268 284 295 310 325 332 336 336 334 334 332 331 332 332 332 332 331 330 328
275 280 284 288 290 289 288 290 292 295 298 298 300 303 307 311 311 310 312 313 315 315 313 313 315 312 309 307 305 304 303 304 302 300 301 301 299 299 296 295 296 296 297 299 298 296 292 293 296 294 292 296 300 303 303 300 300 301 302 302 302 303 297 286 275 275 280 271 270 290 299 298 309 327 336 336 336 335 333 332 332 332 331 331 331 330 328 326
280 283 285 285 285 284 288 293 295 297 299 300 301 305 310 313 313 313 314 314 315 316 314 316 315 311 309 309 307 306 308 308 305 303 304 303 302 300 297 298 298 297 299 300 298 297 294 293 298 298 300 303 304 306 306 302 302 303 305 308 310 309 303 296 296 298 288 269 281 307 311 305 315 332 337 334 335 333 330 331 331 331 330 329 329 328 326 326
283 284 285 284 284 286 289 293 296 298 300 302 304 308 311 313 313 314 315 314 315 315 315 315 314 311 312 311 309 310 310 308 305 306 307 305 303 302 300 300 300 300 302 300 299 299 294 294 300 301 303 308 310 311 310 307 307 310 312 318 320 317 312 310 319 321 301 289 305 319 316 313 325 336 333 331 333 329 328 330 331 330 329 328 328 326 326 328
285 286 287 287 288 292 295 297 298 301 305 306 307 310 312 314 315 317 317 317 318 318 316 316 315 314 314 313 311 311 309 306 306 307 307 305 303 303 302 302 303 303 302 301 300 299 295 295 300 302 304 309 316 318 315 314 314 313 317 332 337 334 335 334 336 337 325 318 325 325 316 317 329 334 330 330 330 327 327 329 330 329 328 328 328 327 327 330
287 289 291 293 297 301 302 302 304 307 308 309 309 311 313 316 318 320 320 320 320 320 317 316 316 314 314 313 311 310 308 306 306 306 306 305 305 305 302 302 303 302 301 302 300 299 298 297 300 304 303 307 317 320 317 316 313 310 325 348 348 348 348 344 339 337 332 330 330 325 319 322 330 331 329 329 328 327 327 328 328 328 328 328 328 328 330 331
296 298 298 300 305 308 307 309 310 310 311 311 312 315 317 319 321 322 322 323 322 321 317 315 315 314 314 313 310 309 309 307 307 307 307 307 306 306 304 303 303 302 301 302 300 301 301 299 301 303 297 303 314 318 317 317 314 315 349 348 345 348 347 342 336 332 332 334 330 324 322 326 330 330 330 329 329 328 326 326 326 327 328 328 328 329 331 330